Regional Weather Roundup
Issued by NWS Lake Charles, LA

Current Version | Previous Version | Text Only | Print | Product List | Glossary On
Versions: 1 2 3 4 5 6 7 8 9 10 11 12 13 14 15 16 17 18 19 20 21 22 23 24 25 26 27 28 29 30 31 32 33 34 35 36 37 38 39 40 41 42 43 44 45 46 47 48 49 50
000
ASUS44 KLCH 230710
RWRLCH
RWRLCH
REGIONAL WEATHER ROUNDUP
NATIONAL WEATHER SERVICE LAKE CHARLES LA
200 AM CDT SAT MAY 23 2015

Note: "fair" indicates few or no clouds below 12,000 feet with no
significant weather and/or obstructions to visibility.


ACROSS SOUTHEAST TEXAS

CITY           SKY/WX    TMP DP  RH WIND       PRES   REMARKS
BEAUMONT       PTCLDY    74  70  87 E9        30.11S
BEAUMONT CITY    N/A     71  69  94 E6        30.11F
ORANGE         SUNNY     71  68  90 E7        30.13F
JASPER         CLEAR     69  67  94 E3        30.15F
$$

ACROSS CENTRAL LOUISIANA

CITY           SKY/WX    TMP DP  RH WIND       PRES   REMARKS
LEESVILLE      CLEAR     67  65  91 E6        30.13F
FULLERTON        N/A     70  64  81 VRB3      30.12F
ALEXANDRIA INT PTCLDY    68  63  84 E3        30.13F
ESLER FIELD    CLOUDY    68  64  87 CALM      30.15F
DERIDDER         N/A     68  66  92 CALM      30.15F
OAKDALE        MOSUNNY   66  65  95 CALM      30.14F
OPELOUSAS      PTSUNNY  N/A N/A N/A NE3       30.14F
$$

ACROSS SOUTHWEST AND SOUTH CENTRAL LOUISIANA

CITY           SKY/WX    TMP DP  RH WIND       PRES   REMARKS
SULPHUR        SUNNY     72  69  90 E7        30.13S
LAKE CHARLES   CLEAR     70  67  90 E8        30.12F
CHENNAULT INT  CLEAR     69  67  94 NE7       30.13F
CAMERON PHI    MOSUNNY   73  70  88 E10       30.14F
DEQUINCY         N/A     68  68 100 E3        30.13F
JENNINGS       PTSUNNY   69  68  96 NE3       30.14F
LAFAYETTE      PTCLDY    71  69  93 CALM      30.14F
NEW IBERIA     CLEAR     74  71  91 E5        30.14F
ABBEVILLE        N/A     70  69  98 CALM      30.13F
PATTERSON      NOT AVBL
SALT POINT       N/A     73  71  93 CALM      30.12F
$$

SELECTED SITES ACROSS THE REGION

CITY           SKY/WX    TMP DP  RH WIND       PRES   REMARKS
HOUSTON BUSH   MOCLDY    74  72  93 E9        30.08F
HOUSTON HOBBY  MOCLDY    77  74  90 E7        30.08S
GALVESTON      MOCLDY    79  76  90 E14       30.10S
COLLEGE STAT   CLOUDY    72  69  90 SE9       30.07F
CONROE         CLOUDY    71  69  93 E5        30.10S
HUNTSVILLE     PTCLDY    72  69  90 VRB5      30.10S
LUFKIN         CLEAR     71  67  87 E7        30.11F
SHREVEPORT     CLEAR     66  61  84 SE5       30.14F
MONROE         CLEAR     62  60  93 CALM      30.18S
NATCHEZ MS     CLEAR     66  59  77 E5        30.17S
BATON ROUGE    CLEAR     70  67  90 CALM      30.15F
N.O. INTL ARPT PTCLDY    73  67  81 SE3       30.15F
SLIDELL        CLEAR     69  69 100 NE3       30.15F
$$

MARINE REPORTS

STATION/POSITION TIME  TEMP    WIND        PRES    VSBY  WAVE
                       AIR SEA DIR/SP/G                  HT/PER
                 (UTC) (F)     (DEG/KT/KT) (MB)    (MI)  (FT/S)
BUOY 30 S HIGH I 0650   79 80  110/ 16/ 17 1018.4F         3/ 4
SEA RIM ST PARK  0700   74      80/  7/  9 1020.0F
PORT ARTHUR      0600      78   80/  7/ 11 1019.9F
SABINE PASS N    0600   74 79   70/  8/ 10 1019.9F
TEXAS POINT      NOT AVBL
CALCASIEU PASS   0600   73 80   70/  8/ 10   N/A
LK CHARLES BEACH 0600   71 77              1020.8F
MARSH ISLAND     0600   78     110/ 14/ 16   N/A           0
FRESH WATER LOCK 0600   76 80   90/  6/  9 1020.1F
AMERADA PASS     0600   74 77   90/  5/  9 1020.6F
$$



USA.gov is the U.S. government's official web portal to all federal, state and local government web resources and services.